Location: Melbourne
(37.8170°S, 144.9670°E)
Time: 21:20:08
(UTC+11:00)

Transit 2A - All Passes

Search period start: 21 October 2014 00:00
Search period end: 31 October 2014 00:00
Orbit: 599 x 964 km, 66.7° (Epoch: 19 October)

Date Brightness Start Highest point End Pass type
(mag) Time Alt. Az. Time Alt. Az. Time Alt. Az.
21 Oct - 02:07:18 10° SSW 02:12:26 60° ESE 02:17:02 10° NE visible
21 Oct - 03:52:41 10° WSW 03:54:52 13° WNW 03:56:59 10° NW night (unlit)
21 Oct - 15:05:41 10° ENE 15:07:24 11° E 15:09:07 10° E daylight
21 Oct - 16:43:26 10° NNW 16:49:49 79° ENE 16:56:01 10° SSE daylight
21 Oct - 18:29:14 10° W 18:33:44 20° SW 18:38:07 10° S daylight
22 Oct - 01:33:54 10° SSW 01:38:48 40° SE 01:43:13 10° NE visible
22 Oct - 03:17:59 10° WSW 03:21:36 20° WNW 03:24:59 10° NNW visible
22 Oct - 16:10:06 10° N 16:16:19 57° ENE 16:22:22 10° SE daylight
22 Oct - 17:54:41 10° WNW 17:59:56 27° SW 18:05:00 10° S daylight
23 Oct - 01:00:36 10° S 01:05:04 28° SE 01:09:09 10° ENE visible
23 Oct - 02:43:51 10° SW 02:48:16 31° WNW 02:52:18 10° N visible
23 Oct - 15:37:00 10° N 15:42:52 40° ENE 15:48:35 10° SE daylight
23 Oct - 17:20:25 10° WNW 17:26:11 36° SW 17:31:45 10° SSE daylight
24 Oct - 00:27:28 10° S 00:31:17 20° SE 00:34:50 10° E visible
24 Oct - 02:10:00 10° SW 02:14:52 49° WNW 02:19:16 10° N visible
24 Oct - 15:04:10 10° NNE 15:09:27 28° ENE 15:14:37 10° SE daylight
24 Oct - 16:46:22 10° NW 16:52:30 48° WSW 16:58:25 10° SSE daylight
24 Oct - 23:54:34 10° S 23:57:25 15° SE 00:00:07 10° ESE visible
25 Oct - 01:36:19 10° SSW 01:41:24 77° WNW 01:45:58 10° NNE visible
25 Oct - 14:31:43 10° NNE 14:36:05 20° ENE 14:40:23 10° ESE daylight
25 Oct - 16:12:32 10° NW 16:18:53 67° WSW 16:24:59 10° SSE daylight
25 Oct - 18:00:20 10° WSW 18:03:13 13° SW 18:06:02 10° SSW daylight
25 Oct - 23:22:32 10° SSE 23:23:29 10° SE 23:24:25 10° SE visible
26 Oct - 01:02:45 10° SSW 01:07:52 70° ESE 01:12:26 10° NE visible
26 Oct - 02:49:13 10° W 02:50:10 11° W 02:51:07 10° WNW night (unlit)
26 Oct - 14:00:00 10° NE 14:02:46 13° ENE 14:05:30 10° ESE daylight
26 Oct - 15:38:55 10° NNW 15:45:18 89° ENE 15:51:28 10° SSE daylight
26 Oct - 17:25:12 10° W 17:29:19 18° SW 17:33:18 10° S daylight
27 Oct - 00:29:19 10° SSW 00:34:15 46° ESE 00:38:41 10° NE visible
27 Oct - 02:13:47 10° WSW 02:16:54 17° WNW 02:19:52 10° NW visible
27 Oct - 15:05:29 10° NNW 15:11:47 64° ENE 15:17:51 10° SE daylight
27 Oct - 16:50:32 10° WNW 16:55:29 24° SW 17:00:16 10° S daylight
27 Oct - 23:55:59 10° S 00:00:33 32° SE 00:04:43 10° ENE visible
28 Oct - 01:39:30 10° SW 01:43:35 26° WNW 01:47:23 10° NNW visible
28 Oct - 14:32:17 10° N 14:38:18 45° ENE 14:44:07 10° SE daylight
28 Oct - 16:16:09 10° WNW 16:21:43 32° SW 16:27:04 10° S daylight
28 Oct - 23:22:47 10° S 23:26:47 22° SE 23:30:29 10° E visible
29 Oct - 01:05:33 10° SW 01:10:13 41° WNW 01:14:28 10° N visible
29 Oct - 13:59:21 10° N 14:04:52 32° ENE 14:10:14 10° SE daylight
29 Oct - 15:42:01 10° NW 15:48:01 43° SW 15:53:46 10° SSE daylight
29 Oct - 22:49:47 10° S 22:52:57 16° SE 22:55:55 10° E visible
30 Oct - 00:31:48 10° SSW 00:36:46 65° WNW 00:41:15 10° NNE visible
30 Oct - 13:26:44 10° NNE 13:31:28 22° ENE 13:36:06 10° ESE daylight
30 Oct - 15:08:06 10° NW 15:14:22 59° WSW 15:20:22 10° SSE daylight
30 Oct - 16:56:41 10° WSW 16:58:49 12° SW 17:00:53 10° SSW daylight
30 Oct - 22:17:18 10° SSE 22:19:02 12° SE 22:20:43 10° ESE visible
30 Oct - 23:58:12 10° SSW 00:00:15 24° SSW 00:00:00 22° SSW visible
